GFSMA_sfc_thetae_000.txt.gz
Theta_e
320 325 326 324 321 322 323 323 324 324 324 325 324 323 326 327 329 332 335 347 347 347 348 348 346 346 346 345 345 343 342 344 346 347 345 343 341 338 336 335 334 334 333
323 324 320 321 319 320 321 322 322 322 323 323 322 323 325 328 329 333 333 339 344 344 347 347 347 347 347 345 342 340 343 344 345 345 342 341 339 336 334 334 333 333 332
322 321 319 319 320 320 320 321 321 322 321 323 322 322 327 328 330 332 334 337 341 344 344 346 346 346 345 346 342 341 341 344 345 342 341 339 337 336 334 334 333 332 331
323 320 319 319 320 319 318 319 319 319 320 320 321 321 325 328 330 332 334 335 334 338 343 345 346 344 345 342 342 342 344 345 343 341 339 337 335 335 333 333 331 331 330
323 320 320 320 320 318 317 318 317 319 318 319 320 321 324 325 331 332 333 333 335 336 338 344 344 343 342 342 344 345 346 344 341 340 338 336 334 334 333 332 331 330 329
323 321 320 320 319 317 316 317 317 318 318 318 324 323 322 323 329 328 333 334 336 334 337 338 339 339 341 343 343 345 346 343 340 338 337 336 336 333 332 332 330 329 329
322 320 320 319 319 317 316 317 317 317 317 318 317 317 319 323 325 330 332 334 334 335 336 337 337 337 338 343 343 344 344 342 339 337 336 335 335 333 332 331 330 329 329
325 322 321 319 319 317 316 317 317 316 316 318 315 317 314 319 325 327 332 333 331 334 334 334 335 334 335 336 337 340 342 341 339 337 335 334 335 332 331 331 330 329 328
326 323 322 320 319 317 316 316 317 317 315 318 319 319 315 312 318 328 328 330 329 332 333 332 333 334 335 335 336 338 340 340 338 336 334 334 333 332 331 329 329 328 328
324 323 322 321 320 318 316 318 320 318 318 317 319 324 322 322 316 318 327 328 330 331 331 331 331 333 334 334 337 338 337 338 338 335 333 333 332 331 330 329 329 328 328
325 324 322 320 319 318 318 320 319 319 319 319 319 321 321 320 322 322 318 323 327 329 330 331 331 332 333 334 335 335 334 335 334 334 334 333 332 331 330 329 329 328 328
324 321 322 319 319 318 319 319 320 320 319 321 323 324 322 319 319 321 321 322 322 325 328 330 331 332 332 334 336 333 331 330 329 329 331 332 333 331 330 329 329 328 327
316 317 319 320 318 320 321 321 320 323 319 322 322 321 321 323 324 325 323 321 320 324 325 328 329 331 333 332 334 333 331 326 325 325 326 328 330 331 331 331 329 328 326
317 318 320 321 322 323 324 322 323 324 323 321 322 322 322 326 327 326 323 320 318 319 321 323 328 330 331 331 332 331 328 325 323 322 322 323 325 327 328 328 329 328 328
320 320 320 320 322 323 322 324 324 324 325 325 325 324 324 327 327 325 325 324 319 315 317 322 323 329 330 330 331 328 326 325 324 321 321 321 322 323 323 324 324 324 324
319 320 321 321 322 322 322 324 323 322 325 326 327 327 326 325 325 326 324 324 323 320 316 323 324 327 328 328 331 325 325 325 324 321 322 321 319 319 320 320 320 321 321
320 321 321 322 322 322 322 322 322 323 325 326 327 326 324 325 325 324 325 324 323 323 319 323 326 328 325 326 326 325 325 323 321 319 321 319 317 316 317 317 317 318 318
321 321 323 323 323 322 323 324 323 324 324 324 325 326 325 327 324 325 325 324 323 324 322 319 323 325 325 325 325 324 323 322 319 320 319 317 315 314 313 313 313 313 313
321 324 324 324 324 324 323 323 323 322 323 324 325 326 326 326 325 324 324 323 324 325 324 322 321 323 322 323 320 319 318 314 316 320 317 315 314 313 312 312 311 311 310
321 323 324 326 326 325 325 325 323 321 320 323 325 326 327 326 325 324 325 324 324 323 323 322 321 319 317 316 316 316 314 315 314 314 315 313 312 312 311 311 312 312 309
322 323 324 325 325 325 327 325 324 325 323 321 322 325 325 325 323 323 326 324 324 322 322 317 316 314 314 312 309 311 312 312 313 312 308 308 308 307 309 310 314 314 310
321 321 322 323 322 325 309 313 322 325 325 324 322 325 324 322 320 317 318 318 320 319 317 316 313 312 311 312 312 311 311 310 310 312 308 309 307 307 307 306 307 305 305
315 316 316 316 315 318 307 310 315 325 325 324 323 324 327 327 322 325 313 312 313 312 315 316 313 312 312 314 313 311 311 311 310 312 312 311 310 309 309 309 306 304 303
314 312 312 311 312 314 305 307 311 326 325 323 323 322 324 324 323 318 316 315 315 315 316 319 315 315 314 315 315 315 313 312 314 315 313 311 308 310 311 302 305 305 304
312 312 311 309 309 307 303 304 317 322 322 319 319 318 318 317 306 303 314 312 307 304 302 303 309 307 305 306 311 318 314 312 307 307 307 309 304 303 303 303 303 303 301
313 313 311 309 307 303 301 305 314 319 315 313 312 314 307 311 299 301 312 312 308 307 303 301 299 297 296 298 302 307 311 304 301 301 306 304 302 301 300 303 301 301 300

GFSMA_sfc_thetae_003.txt.gz
Theta_e
318 319 322 324 325 324 323 321 322 323 324 325 324 323 322 324 327 327 329 340 346 347 348 348 348 348 346 348 347 345 343 342 343 344 344 344 343 340 338 336 335 334 333
319 320 323 323 319 319 319 320 321 321 321 321 322 323 322 323 326 327 330 333 345 346 346 347 348 348 348 348 345 343 341 340 343 344 343 342 340 337 335 335 334 333 333
320 321 320 318 318 318 318 319 319 320 319 320 320 321 321 323 325 327 330 332 335 344 345 345 347 347 347 346 343 343 340 339 344 344 341 340 338 336 334 334 333 333 332
322 320 318 317 319 318 317 316 317 317 317 318 318 319 320 322 324 326 329 332 332 334 340 343 346 345 345 346 345 341 338 341 342 341 340 338 336 336 334 333 332 332 331
325 320 318 318 318 316 316 316 315 317 316 316 318 318 320 320 324 329 329 330 331 333 334 341 344 343 344 344 342 340 342 341 341 340 339 337 335 334 333 332 332 331 330
324 319 317 318 318 315 314 314 314 317 316 316 320 320 319 320 324 325 328 330 330 333 333 335 339 341 343 341 340 340 342 341 340 338 337 336 336 334 332 332 331 330 329
322 319 317 318 317 315 314 315 315 314 315 316 315 315 318 320 324 327 328 330 331 333 332 334 337 337 337 340 340 341 343 342 340 337 336 335 335 333 332 331 331 330 329
322 320 319 318 317 315 314 315 315 315 314 316 313 312 309 314 324 327 327 329 330 333 334 334 336 335 335 336 337 339 341 341 340 336 336 335 335 334 332 331 330 330 329
323 322 320 318 317 315 314 314 315 316 314 316 316 314 311 308 318 324 327 327 331 331 333 334 334 335 335 335 335 337 338 339 336 336 335 336 334 332 332 331 330 329 329
323 322 321 318 317 316 314 314 317 316 316 314 316 320 318 318 315 316 325 326 329 329 330 332 332 333 334 334 336 335 335 336 336 335 334 334 333 333 331 330 329 329 328
324 322 320 318 317 316 315 316 316 316 316 316 317 319 321 320 321 321 317 321 327 329 330 331 332 333 333 333 333 334 334 334 334 334 335 334 333 332 331 330 329 329 328
322 319 320 318 317 316 318 318 317 317 317 318 319 321 320 318 317 320 319 321 321 326 329 330 330 331 333 333 334 334 331 330 329 330 331 332 333 332 331 329 329 329 327
317 315 317 317 316 318 319 318 318 318 317 319 320 320 320 320 324 323 322 321 320 324 325 329 330 331 332 332 333 333 332 328 325 325 327 328 330 331 331 330 330 328 327
314 315 318 319 320 321 321 320 320 320 319 319 320 321 321 322 326 326 323 321 318 320 323 324 330 330 331 332 333 332 329 325 324 323 323 324 326 327 328 329 329 328 328
317 317 318 319 321 321 321 322 322 322 322 321 321 321 325 323 326 327 326 325 320 316 317 323 324 329 331 331 331 328 327 326 325 321 321 321 322 323 324 324 324 324 324
316 317 318 319 320 320 322 322 321 326 326 324 322 324 326 325 325 326 325 324 323 321 317 323 325 328 330 330 330 327 326 325 322 321 322 321 320 320 320 320 320 321 322
317 317 319 320 320 320 321 320 322 325 325 326 326 324 325 325 324 324 325 325 323 323 319 323 326 326 327 327 326 325 325 323 322 320 322 320 318 317 317 317 317 318 319
317 319 320 321 321 320 320 322 321 322 325 325 325 325 324 325 324 324 324 323 323 324 322 320 324 324 323 324 324 322 322 321 319 320 319 318 315 314 313 313 313 313 313
318 320 321 321 321 321 321 320 321 320 321 325 325 326 325 324 324 324 324 324 324 324 324 322 321 322 322 322 320 319 316 314 316 319 317 316 314 313 312 312 311 310 309
319 319 320 323 322 322 322 321 320 322 323 324 325 326 324 325 324 324 324 324 324 323 323 322 321 319 318 317 316 315 315 313 312 313 314 313 313 313 311 311 312 313 310
320 321 322 322 322 322 323 320 320 320 322 323 325 326 325 324 322 322 325 324 324 323 322 319 316 315 313 311 312 311 311 310 312 313 309 308 309 308 308 309 312 312 309
319 321 320 321 321 324 306 312 320 323 324 323 324 324 323 321 318 315 316 316 321 322 318 316 313 314 311 312 309 308 309 309 308 310 309 309 307 308 308 307 307 305 304
314 316 316 317 318 317 304 307 313 324 323 322 324 324 325 324 323 324 313 313 314 313 314 317 314 312 312 312 310 308 308 309 310 312 311 310 309 309 310 307 304 303 302
312 312 312 313 317 315 303 306 312 324 323 323 324 325 324 323 322 322 322 321 318 317 316 318 316 315 314 314 314 313 312 311 312 310 311 310 303 305 304 302 304 302 301
309 310 310 312 314 312 302 302 316 323 322 321 322 323 324 323 307 306 318 313 307 307 302 303 306 301 302 305 311 317 314 313 309 307 305 306 302 302 302 303 303 303 301
309 310 309 309 307 309 299 302 315 319 316 317 317 316 309 317 300 299 313 308 306 304 303 303 301 298 301 301 306 314 314 307 301 302 306 304 303 301 299 301 300 300 299

GFSMA_sfc_thetae_006.txt.gz
Theta_e
320 321 321 322 324 326 325 326 325 326 327 327 328 327 327 327 329 331 332 335 338 344 344 347 349 348 348 348 347 344 341 340 342 344 343 345 344 344 341 340 338 336 334
321 321 321 323 323 323 323 323 324 325 325 326 326 327 327 326 327 329 331 333 336 342 344 345 348 348 348 347 346 343 342 343 343 341 342 342 343 341 339 337 335 334 334
322 322 322 322 321 322 322 322 322 323 323 324 324 326 326 326 326 327 331 333 336 339 344 344 345 346 348 346 347 345 343 342 341 341 342 341 340 338 336 335 334 334 333
323 321 322 321 321 321 321 320 320 321 322 322 323 324 325 325 326 327 330 333 336 338 339 344 343 345 346 342 346 345 340 340 340 340 339 340 338 337 336 334 334 333 332
325 322 321 321 321 320 319 319 319 320 319 320 321 322 323 324 326 329 330 333 336 337 339 341 340 343 344 346 345 342 340 339 339 339 340 338 336 335 336 333 333 332 331
326 323 321 320 320 319 318 317 318 319 320 320 322 323 322 324 326 329 331 334 335 335 337 338 340 343 342 343 343 341 339 339 337 338 338 337 337 335 335 333 333 331 330
325 322 320 319 320 318 318 318 318 318 319 320 318 319 322 325 326 327 328 331 332 333 336 338 340 342 340 342 339 339 339 338 339 337 337 336 336 335 334 333 332 331 329
325 322 320 320 319 318 317 317 318 317 318 320 317 317 315 320 324 328 327 328 331 335 335 337 337 338 337 336 336 339 338 340 339 336 336 335 336 334 333 332 331 330 329
325 324 322 321 320 318 316 317 318 319 317 318 320 318 314 312 319 325 328 328 330 334 334 336 334 334 336 333 335 338 338 337 336 333 333 333 335 333 333 332 331 330 330
324 323 323 321 320 318 317 317 319 320 320 318 320 323 321 322 317 315 325 327 331 331 331 334 331 333 333 334 336 338 334 332 331 332 332 332 334 333 332 332 331 330 329
325 323 322 320 319 319 319 318 319 319 321 320 321 322 322 323 323 322 316 322 327 329 331 332 332 332 333 332 333 333 331 331 331 333 334 335 334 333 332 331 330 329 328
322 322 321 321 320 320 319 319 320 320 320 321 323 325 323 319 320 320 320 320 321 326 329 331 331 331 331 330 333 332 331 330 329 330 332 329 334 334 332 331 330 329 329
320 319 320 320 321 321 321 321 321 321 321 322 323 324 323 323 324 325 324 321 320 324 326 329 330 331 331 330 332 333 332 327 325 325 327 329 331 330 332 331 330 330 328
318 319 321 322 323 324 323 323 323 322 322 324 323 324 324 324 328 327 324 323 318 320 323 324 329 330 330 330 331 332 329 325 324 323 324 324 326 328 329 329 330 329 329
319 320 321 322 323 324 324 324 324 325 324 324 324 325 326 325 327 328 328 327 321 315 318 323 324 329 330 331 332 330 329 325 325 322 322 322 323 324 324 325 325 325 325
320 320 321 322 323 324 324 324 325 327 327 325 326 327 326 327 327 327 326 326 324 323 317 324 325 327 329 330 331 328 327 326 323 321 322 321 320 320 321 321 321 322 322
319 320 322 322 323 323 323 325 325 326 326 326 326 326 325 326 325 326 326 327 324 326 320 323 326 328 327 327 327 326 327 326 324 320 321 319 317 317 318 318 318 318 319
320 321 323 323 323 323 324 325 325 326 326 325 325 325 324 325 325 325 326 324 325 326 323 319 323 324 325 325 324 323 325 324 322 321 319 318 316 315 314 314 313 313 312
320 322 323 323 322 323 322 322 323 324 326 326 326 325 325 325 324 324 325 324 325 325 325 322 321 323 323 324 321 321 319 318 319 321 317 316 314 313 313 312 311 310 309
321 322 323 323 323 324 323 322 323 325 326 326 326 326 326 326 325 324 324 324 324 323 323 322 321 319 320 320 321 320 319 320 318 317 316 314 313 312 311 311 312 313 310
322 323 324 323 324 323 323 322 322 323 325 326 326 326 326 324 321 323 325 324 324 323 322 321 319 318 317 318 320 319 319 317 318 320 318 315 316 316 314 311 313 310 306
321 323 323 324 323 324 305 311 319 322 325 326 323 323 323 320 316 313 315 316 321 323 321 322 320 319 318 320 316 318 316 317 315 318 319 315 316 312 312 312 306 304 303
320 321 320 322 323 320 302 305 311 325 324 325 324 324 325 323 323 321 312 312 313 312 316 322 322 321 319 319 317 315 316 316 317 318 320 314 314 309 310 308 303 302 301
317 317 317 320 320 317 302 303 310 325 324 325 326 326 326 324 322 324 325 324 324 323 323 323 324 323 324 321 322 320 319 318 318 316 320 313 311 310 309 310 303 302 301
314 315 316 320 320 316 300 302 317 325 325 325 326 325 325 324 305 308 324 321 316 314 304 306 306 304 303 305 313 320 319 320 318 315 313 313 310 310 310 307 306 302 300
314 314 314 318 313 318 300 302 316 323 321 321 322 321 311 318 301 304 321 316 314 312 312 308 308 307 308 307 305 323 321 318 310 311 314 312 309 309 307 308 305 304 304

GFSMA_sfc_thetae_009.txt.gz
Theta_e
334 333 332 332 332 331 332 333 333 332 333 335 335 334 334 335 335 335 332 334 336 338 341 345 345 347 348 349 348 347 347 345 344 344 343 343 346 346 343 341 340 339 338
333 332 331 331 332 333 332 332 331 331 330 333 334 335 334 335 335 333 330 334 335 337 339 343 344 346 347 348 348 347 345 342 342 345 345 345 344 344 342 340 337 336 335
334 334 333 333 335 336 334 333 332 332 331 331 332 333 334 335 332 332 332 334 336 336 338 343 342 344 347 348 348 346 343 343 343 343 343 341 342 342 340 337 335 335 334
336 335 333 332 334 333 333 330 329 328 328 329 331 332 332 333 332 333 333 333 336 338 340 341 343 343 346 347 349 344 341 343 342 340 341 341 339 339 338 335 335 334 333
335 333 333 332 334 331 329 330 329 328 327 328 329 331 330 329 331 331 333 337 340 341 341 342 341 342 343 345 348 345 342 341 340 340 339 338 339 338 337 336 334 333 332
335 334 332 331 332 329 328 328 328 328 328 329 328 328 329 330 331 332 335 337 339 341 342 344 345 343 343 340 338 345 342 338 337 338 339 338 338 338 337 334 333 332 331
335 334 333 330 327 327 329 329 328 326 326 329 327 326 329 332 333 334 338 338 339 340 342 346 344 344 344 341 340 341 340 339 339 338 337 336 337 336 334 334 333 332 330
335 333 329 328 327 327 329 328 327 324 327 329 325 324 319 323 331 334 336 337 335 340 342 342 344 345 346 339 340 340 339 340 337 336 335 334 335 334 333 333 332 330 330
332 333 331 330 330 329 328 328 327 326 324 326 330 325 317 314 322 332 331 331 334 337 339 339 342 340 336 337 339 339 338 336 339 335 335 333 327 333 333 332 332 330 330
332 332 332 330 331 329 328 327 328 328 328 325 328 332 332 329 318 319 330 332 332 336 336 336 335 334 338 338 336 334 335 335 333 333 332 331 331 334 333 332 331 331 329
332 330 331 331 331 329 330 328 328 328 331 329 330 327 330 331 331 325 319 327 331 333 333 334 333 333 333 334 333 333 331 330 332 332 332 333 335 334 332 332 331 330 329
331 331 330 331 331 330 330 329 329 329 329 332 332 331 330 328 328 328 322 324 323 328 333 331 332 334 332 330 330 329 329 328 328 328 328 334 334 334 332 332 331 330 329
327 330 331 331 332 332 331 331 330 330 330 329 331 331 333 330 331 332 326 324 322 326 328 330 331 331 330 329 329 330 329 326 325 325 325 327 331 329 331 332 331 330 329
328 331 331 332 332 332 332 332 331 330 331 332 331 330 330 328 330 333 330 325 320 323 325 325 329 330 330 329 329 329 328 325 324 322 321 324 325 324 326 330 330 330 330
329 330 330 332 332 333 333 333 332 331 331 331 331 331 328 329 331 337 338 331 326 319 319 323 323 329 330 330 329 329 330 325 324 322 323 322 320 321 324 325 326 326 326
330 330 330 332 333 333 333 333 330 331 331 332 329 331 330 333 334 336 333 331 333 323 319 324 325 327 329 330 331 330 329 326 323 322 323 322 320 321 321 322 322 323 324
329 328 329 330 332 332 332 330 330 329 329 330 330 328 328 332 332 332 334 331 327 325 320 322 326 328 327 327 327 328 329 328 326 321 322 320 318 318 319 319 319 320 320
329 328 330 329 330 331 329 328 326 327 327 327 326 326 326 327 328 333 330 331 329 327 323 320 323 324 325 326 326 326 327 327 327 322 320 318 316 315 315 315 316 315 313
329 329 330 330 330 330 331 331 328 328 328 328 328 326 327 326 329 331 330 329 327 326 325 323 322 324 324 324 324 324 324 323 325 323 318 317 315 315 314 313 313 312 309
329 330 331 330 331 330 329 330 328 329 330 329 328 329 328 328 331 330 328 330 330 327 324 322 322 321 321 322 322 319 317 322 320 322 318 316 315 312 312 312 313 311 306
330 331 331 331 332 331 329 329 327 329 330 329 329 329 331 327 322 324 329 326 326 325 323 321 320 319 318 319 319 323 322 322 323 323 322 322 324 321 315 311 311 309 305
331 331 330 330 331 329 305 313 323 327 330 330 330 327 326 321 317 314 315 316 323 325 322 321 320 319 321 325 325 323 321 320 317 327 322 317 318 315 313 313 304 303 303
331 331 330 331 331 329 302 305 313 328 329 328 331 328 327 328 327 329 313 312 312 311 317 330 328 325 326 328 327 326 324 324 323 325 320 314 316 312 313 309 302 301 300
330 330 330 331 330 326 301 303 309 328 328 328 331 330 329 331 328 330 330 329 329 328 329 332 335 334 334 333 331 328 327 328 328 326 325 314 316 313 311 309 302 300 299
328 327 328 329 330 323 301 303 318 326 327 328 332 331 328 330 305 309 330 328 328 325 308 304 306 307 306 309 318 325 322 324 323 322 327 318 316 312 311 308 306 300 299
327 325 327 331 319 322 299 303 320 327 325 326 329 329 311 321 301 306 332 330 327 325 326 326 326 317 316 313 308 332 328 325 325 318 321 318 316 312 308 310 307 307 306

GFSMA_sfc_thetae_012.txt.gz
Theta_e
338 338 336 335 334 335 332 333 334 334 334 334 335 335 333 333 334 335 335 337 336 337 338 339 343 346 346 348 348 349 347 347 346 345 344 344 344 347 346 344 343 342 340
339 337 335 334 333 336 333 332 334 333 332 332 333 335 335 335 335 335 336 335 335 336 337 338 343 345 346 347 348 348 346 346 345 344 344 344 346 345 343 342 340 339 337
340 339 337 336 336 338 339 336 334 333 331 331 332 334 334 336 336 336 336 332 334 337 337 338 343 343 344 347 348 348 346 345 344 344 343 342 342 342 342 339 338 336 335
341 339 337 337 338 338 338 335 332 330 329 329 330 333 333 334 334 335 333 331 332 335 338 340 342 342 343 348 347 347 346 343 343 342 343 342 342 341 339 336 335 335 334
340 339 339 339 339 337 336 333 331 331 330 328 327 332 335 333 333 331 330 333 336 338 336 342 341 342 343 346 348 348 346 341 342 342 341 341 341 339 338 336 334 334 333
339 338 338 337 336 336 334 331 332 332 330 328 329 331 332 332 331 331 331 333 336 339 339 342 344 343 343 342 346 344 346 342 342 341 340 339 338 338 337 336 334 333 332
339 337 337 336 336 333 330 333 332 330 329 331 330 330 330 332 332 330 332 333 336 338 341 342 343 345 342 336 334 344 342 341 340 339 337 336 336 337 336 334 333 332 331
338 336 335 336 335 329 331 332 332 328 331 333 327 327 322 326 329 331 334 335 337 340 340 341 343 345 348 344 344 339 342 341 340 337 336 334 335 331 328 333 332 331 330
337 337 335 335 334 333 333 333 332 328 327 331 333 328 320 316 322 332 334 334 337 340 341 342 344 346 347 347 339 341 339 339 338 335 332 332 331 331 329 333 332 331 330
334 334 336 335 335 336 334 332 332 333 331 329 332 331 331 329 318 318 333 334 338 339 339 340 343 341 346 344 340 338 335 336 336 333 332 330 330 331 333 333 332 331 330
334 332 334 335 334 334 335 333 332 331 333 331 328 328 330 330 329 323 321 329 335 339 339 336 336 338 336 334 336 335 332 333 330 331 329 331 332 333 333 333 332 331 330
336 334 332 334 335 334 333 332 332 332 334 334 332 329 331 330 325 329 328 329 328 331 334 335 333 333 335 332 333 332 329 327 327 328 330 331 334 335 333 332 332 330 330
335 333 334 335 335 336 334 334 333 333 333 334 334 331 331 332 338 334 333 327 324 327 328 330 331 330 330 330 329 330 329 326 324 324 326 328 331 331 333 333 331 330 329
332 334 334 335 335 334 335 335 333 332 333 334 332 332 334 337 334 338 336 324 321 325 325 326 327 327 326 326 328 328 326 323 322 322 323 324 321 323 324 329 330 330 330
331 334 334 335 335 335 335 336 336 334 333 334 333 334 334 333 332 336 339 337 330 320 319 325 323 326 327 327 327 326 324 323 324 320 321 322 322 322 322 325 326 327 328
332 332 333 335 335 336 336 337 336 335 333 334 333 330 332 334 334 337 339 338 337 329 321 324 323 324 326 327 328 327 325 325 322 322 323 321 319 318 321 322 323 326 326
333 331 332 334 333 334 335 333 332 331 331 332 331 333 332 334 333 333 337 335 331 329 321 322 323 324 324 326 327 326 328 328 325 321 322 320 319 319 320 321 322 322 322
332 330 331 332 332 332 335 330 329 328 329 330 331 329 328 332 334 335 334 331 330 327 322 319 322 324 324 326 326 326 327 328 327 322 320 318 317 317 317 318 319 318 314
330 329 330 329 332 331 332 332 330 328 328 330 329 326 327 329 332 335 334 329 326 326 324 321 320 324 324 326 324 324 324 326 327 323 318 316 316 316 315 315 313 312 310
330 331 332 332 332 331 333 331 330 331 331 331 330 328 327 329 334 332 332 330 328 326 325 322 321 321 322 323 323 320 318 322 323 324 319 318 317 313 313 313 312 309 306
332 332 332 333 333 332 332 332 330 333 333 330 330 330 332 328 324 329 333 332 332 327 325 320 319 319 319 321 319 321 318 320 322 322 322 322 321 321 315 311 310 307 305
333 333 332 332 333 329 311 315 325 332 334 333 328 330 329 323 320 315 316 315 326 328 323 321 319 318 318 318 319 320 322 319 317 328 325 325 323 317 317 314 304 303 302
334 333 333 333 332 331 306 308 315 332 335 333 329 328 327 326 328 329 312 312 312 312 318 325 320 320 320 325 324 326 325 324 322 326 324 317 319 315 312 308 302 301 300
334 334 334 334 333 326 303 303 309 333 334 333 335 334 332 331 331 331 330 328 327 327 329 327 325 328 334 335 334 331 332 333 330 326 326 316 319 315 313 308 300 299 298
334 332 334 334 333 329 302 303 317 329 333 332 333 334 334 333 308 309 330 328 327 322 307 308 311 308 308 313 322 327 328 325 323 324 327 320 319 314 312 308 304 299 298
332 331 332 334 322 331 301 302 318 329 330 330 333 331 309 324 304 307 334 332 329 328 327 326 325 318 322 319 310 336 330 325 329 324 329 322 318 316 311 313 309 307 305

GFSMA_sfc_thetae_015.txt.gz
Theta_e
343 340 342 337 338 336 337 337 337 336 335 335 334 336 335 335 335 334 336 339 336 336 337 339 340 343 346 347 349 348 347 346 345 344 345 344 344 343 344 344 345 344 342
342 339 339 336 337 336 336 336 336 338 335 335 334 335 335 335 334 337 334 336 338 336 336 338 339 343 346 346 348 347 347 345 344 344 344 343 343 343 344 343 343 342 340
343 342 338 338 343 343 341 338 337 338 333 332 334 334 334 336 334 336 335 334 336 339 339 338 339 344 345 346 349 348 347 346 346 344 343 342 342 341 344 342 341 339 336
343 341 338 338 344 344 341 338 336 335 331 330 332 335 333 333 335 338 335 336 332 335 339 340 340 344 344 345 349 348 347 345 344 343 342 341 342 341 342 341 338 336 334
341 340 338 340 342 342 340 337 335 335 330 329 332 333 333 334 335 332 333 333 335 335 336 341 344 345 344 345 349 349 347 345 344 342 342 342 342 341 339 338 335 334 333
339 341 338 340 341 339 337 337 334 335 332 336 329 333 335 332 332 331 332 331 334 337 337 339 342 340 344 346 349 349 348 346 344 342 341 340 339 339 338 337 335 334 332
342 340 338 339 338 336 336 337 333 332 332 334 329 329 332 333 334 334 331 331 335 335 337 336 337 346 344 343 346 347 348 347 345 341 339 337 336 338 337 336 333 332 332
340 338 338 338 338 337 335 333 334 330 331 332 326 327 321 326 330 330 331 333 335 334 335 337 341 344 347 339 340 344 346 344 341 339 337 335 336 337 335 332 332 332 331
340 338 337 337 336 339 335 335 334 331 327 333 332 328 321 317 322 330 331 331 335 337 337 339 341 344 347 347 342 343 340 339 340 337 332 333 332 332 330 332 332 331 330
336 336 336 336 335 341 334 334 333 331 332 327 331 332 333 330 319 319 330 335 339 339 342 342 347 345 346 345 341 341 337 338 338 334 332 332 330 329 329 332 332 332 331
335 335 335 335 336 334 336 334 333 333 335 332 333 331 332 328 326 326 319 326 335 341 341 342 343 345 343 340 343 338 334 334 332 331 332 333 332 331 333 332 332 331 330
337 336 333 334 336 335 334 334 335 334 335 335 338 333 335 328 323 323 330 330 329 334 338 339 335 334 335 337 338 333 330 328 326 328 329 332 332 332 334 332 332 331 330
336 336 335 336 335 336 336 336 335 334 335 335 334 334 339 335 334 333 333 330 327 330 329 330 329 331 331 334 334 332 329 325 325 325 327 328 330 332 333 333 332 331 330
335 336 335 336 336 336 336 337 332 333 335 336 333 335 335 338 336 337 336 333 325 326 325 324 327 329 329 330 329 329 326 324 324 323 324 324 326 329 329 330 330 330 330
333 334 334 335 335 335 335 336 337 335 333 334 334 335 335 337 332 337 340 339 331 319 318 322 321 325 327 327 327 326 326 324 324 321 320 319 321 322 324 326 326 327 327
333 333 334 335 335 335 335 336 336 335 334 336 334 335 334 332 334 337 339 338 338 329 319 325 322 323 325 325 327 325 324 324 322 321 321 319 319 317 322 322 324 326 327
335 331 331 333 333 334 335 336 334 332 332 333 332 330 331 333 336 339 334 334 331 330 318 319 323 324 322 322 323 323 325 323 323 322 321 319 317 318 320 322 325 326 324
333 330 331 330 331 333 335 332 330 330 331 330 332 330 328 332 334 335 334 331 331 327 320 316 320 321 322 323 322 324 325 326 325 322 320 318 317 318 319 320 319 315 314
330 330 330 329 331 332 332 332 331 329 332 330 327 327 329 329 332 332 330 328 327 324 321 318 318 322 323 322 322 324 324 324 327 323 318 317 316 316 315 314 312 311 308
329 330 331 331 331 332 332 332 333 332 331 329 328 328 328 329 331 330 329 327 325 321 321 321 320 320 321 323 321 319 319 322 322 324 320 319 317 313 312 312 310 308 305
330 332 332 331 332 333 330 332 333 334 333 333 332 329 330 327 324 329 328 327 325 322 322 320 319 319 318 319 317 319 317 319 322 325 324 323 321 319 313 310 309 307 304
332 333 331 332 332 328 310 313 323 333 333 332 329 328 331 325 318 314 317 319 325 325 322 320 319 318 318 317 316 316 317 315 314 327 322 321 323 317 314 312 304 303 302
337 334 334 333 332 330 308 308 310 334 335 333 332 330 330 331 328 327 313 312 313 313 317 323 319 319 317 317 315 318 322 322 321 326 328 320 322 315 311 305 302 301 300
335 334 334 334 333 326 305 305 306 335 335 333 333 333 333 333 330 328 329 326 325 324 324 324 323 322 320 318 326 329 327 332 329 328 330 316 320 311 310 305 300 299 298
337 336 336 334 332 329 304 303 314 334 333 331 332 335 334 332 308 310 327 324 321 319 312 312 314 312 309 310 321 329 324 326 322 323 327 320 318 312 308 304 301 299 298
333 334 334 334 323 330 303 302 314 333 333 333 334 329 309 324 306 309 330 324 321 322 323 325 326 317 316 321 311 334 331 326 327 324 329 322 319 314 310 310 305 302 300

GFSMA_sfc_thetae_021.txt.gz
Theta_e
332 331 329 331 331 331 329 329 330 330 331 330 331 328 328 330 333 332 332 343 342 343 342 342 341 342 342 346 348 348 348 348 347 346 344 344 344 342 343 343 343 342 342
331 333 333 330 329 328 328 328 327 327 327 327 328 330 329 328 331 331 334 335 341 341 342 342 341 341 341 344 348 348 347 347 347 346 344 344 344 343 343 343 342 343 342
332 334 331 330 330 330 329 329 328 328 327 327 326 326 330 328 330 329 331 332 336 340 340 340 341 340 342 343 347 348 348 347 347 345 344 343 343 342 343 342 343 343 340
335 334 330 329 330 330 329 328 326 325 326 325 324 324 325 327 327 328 329 330 330 331 338 341 341 342 343 343 347 348 348 347 346 344 343 342 343 342 342 342 343 340 338
338 333 331 329 330 330 329 328 327 325 323 324 324 324 325 326 326 328 328 329 330 329 329 337 340 341 343 345 346 348 348 347 345 344 343 342 342 342 342 342 340 337 335
337 333 331 329 330 329 327 326 325 324 324 323 326 324 325 324 324 324 328 330 326 327 329 330 332 335 342 345 347 347 348 348 346 344 343 341 341 341 341 340 338 336 334
335 332 330 329 329 327 326 326 324 323 322 323 319 317 321 323 322 324 325 325 326 327 326 331 331 331 334 344 344 346 348 348 347 344 341 339 340 340 337 337 337 335 334
331 330 328 327 327 326 325 324 322 320 320 321 316 317 310 315 320 323 323 324 326 325 327 332 330 331 332 335 338 344 347 348 346 344 340 339 339 338 337 337 336 334 334
333 331 329 328 326 325 323 322 322 320 317 318 319 315 312 309 313 318 321 322 322 325 326 328 330 332 335 333 338 342 343 345 345 343 340 339 338 338 337 336 335 334 330
331 331 329 328 326 325 323 323 324 321 318 316 318 321 319 319 310 308 316 321 323 326 325 326 326 330 332 331 336 339 338 340 343 342 339 338 335 336 336 334 330 332 330
328 330 328 326 325 324 324 323 323 322 321 317 317 316 318 319 319 313 308 313 320 321 323 324 325 329 331 332 332 335 334 336 337 337 337 337 336 336 332 330 330 329 327
327 327 328 325 325 325 324 324 324 323 321 321 320 319 317 313 314 314 312 312 313 316 325 326 326 329 328 333 337 334 332 331 329 330 330 331 333 333 333 329 329 328 331
324 325 325 323 324 326 326 325 323 323 324 322 322 320 321 318 315 318 316 313 313 318 324 326 328 330 334 334 333 333 332 328 327 327 326 328 329 330 329 329 329 332 332
325 324 325 326 327 328 328 326 324 324 324 322 321 321 321 321 321 320 319 315 313 318 320 320 326 328 332 334 333 332 329 325 324 323 323 323 325 327 327 328 330 330 331
325 326 325 326 328 328 328 326 324 322 324 322 323 322 323 322 323 323 322 322 318 314 315 320 320 327 331 332 331 328 326 324 324 322 321 321 321 323 323 325 325 326 326
325 325 325 327 328 327 328 325 323 326 327 325 324 322 323 323 324 326 326 324 322 317 314 320 321 324 326 327 329 326 325 325 322 321 321 321 320 321 321 320 320 322 323
327 325 326 327 328 326 326 324 323 325 326 326 323 322 322 323 322 323 323 323 320 319 316 318 321 323 323 323 324 324 324 323 322 321 320 319 316 318 318 316 316 321 320
322 324 326 330 328 328 325 324 325 327 326 323 324 324 321 325 324 325 325 320 320 320 318 315 319 320 321 323 323 322 322 323 320 320 318 317 315 316 316 315 314 316 314
325 326 326 326 327 327 326 325 325 327 326 323 323 322 321 324 324 326 323 321 321 321 320 317 316 320 321 322 321 321 319 318 319 319 316 314 315 315 315 313 312 311 309
324 326 328 328 329 327 327 329 329 327 325 323 322 324 324 326 324 323 323 322 321 319 319 317 317 318 319 320 320 318 317 319 318 320 318 315 315 312 311 310 311 310 306
323 327 327 326 324 322 321 325 328 326 324 323 324 324 324 325 323 322 323 321 320 319 318 317 316 317 317 317 316 318 316 318 319 319 315 314 310 309 308 309 311 308 304
326 326 327 324 320 320 305 309 319 326 325 325 323 321 322 319 316 314 315 316 319 320 317 317 316 316 316 316 318 317 316 314 312 318 315 311 309 305 304 302 305 303 302
327 325 324 320 317 313 302 303 309 325 326 324 325 325 324 321 319 318 311 312 311 311 316 319 317 316 316 317 317 315 316 313 314 317 314 306 304 301 301 302 302 301 300
322 322 324 320 317 313 303 302 312 325 324 324 324 325 324 321 320 322 321 321 321 321 321 322 320 319 318 318 318 316 313 313 316 316 313 302 302 299 298 297 301 300 298
323 322 324 320 317 313 304 301 319 324 324 324 326 326 324 322 307 308 322 321 320 318 310 308 308 306 303 307 313 315 315 313 311 313 312 303 301 298 296 295 296 299 298
325 328 325 322 315 315 305 301 318 326 323 322 321 320 311 317 303 306 322 320 318 318 318 316 314 309 309 309 309 314 316 312 313 312 314 306 301 300 296 297 294 295 294